Weather Roundup
Issued by NWS Chicago, IL

Home | Current Version | Previous Version | Graphics & Text | Print | Product List | Glossary On
Versions: 1 2 3 4 5 6 7 8 9 10 11 12 13 14 15 16 17 18 19 20 21 22 23 24 25 26 27 28 29 30 31 32 33 34 35 36 37 38 39 40 41 42 43 44 45 46 47 48 49 50
000
NZUS59 KLOT 250003
HRRLOT

CHICAGO AREA WEATHER ROUNDUP
NATIONAL WEATHER SERVICE CHICAGO/ROMEOVILLE IL
700 PM CDT TUE MAY 24 2016

NOTE: "FAIR" INDICATES FEW OR NO CLOUDS BELOW 12,000 FEET WITH NO
SIGNIFICANT WEATHER AND/OR OBSTRUCTIONS TO VISIBILITY.

* THESE STATIONS ARE NOT UNDER NWS QUALITY CONTROL. THEY ALSO MAY NOT
  REPORT WEATHER SUCH AS PRECIPITATION OR FOG.

ILZ005-006-012>014-019>023-250100-
NORTHEAST ILLINOIS

CITY           SKY/WX    TMP DP  RH WIND       PRES   REMARKS
OHARE          PTSUNNY   84  49  29 S9        29.92R HX  82
6HR MIN TEMP:  82; 6HR MAX TEMP:  86;

MIDWAY         PTSUNNY   85  50  29 SW10G20   29.93R HX  83
6HR MIN TEMP:  85; 6HR MAX TEMP:  89;

AURORA         MOSUNNY   83  55  38 S9        29.93R HX  82
6HR MIN TEMP:  83; 6HR MAX TEMP:  88;

LANSING*       SUNNY     83  51  33 SW10      29.95R HX  81
WAUKEGAN       SUNNY     73  55  53 E3        29.92R
6HR MIN TEMP:  73; 6HR MAX TEMP:  85;

DUPAGE AIRPORT MOSUNNY   83  51  33 SW13      29.92R HX  81
6HR MIN TEMP:  82; 6HR MAX TEMP:  87;

WHEELING       MOSUNNY   85  47  26 SW10      29.93R HX  82
6HR MIN TEMP:  83; 6HR MAX TEMP:  87;

MORRIS*        SUNNY     84  53  34 S14       29.93R HX  82
$$

WIZ051-052-058>065-066-070>072-250100-
SOUTHEAST WISCONSIN

CITY           SKY/WX    TMP DP  RH WIND       PRES   REMARKS
MILWAUKEE      CLOUDY    72  60  66 NE7       29.92R
6HR MIN TEMP:  72; 6HR MAX TEMP:  85;

KENOSHA*       MOSUNNY   82  52  35 SW7       29.92R HX  81
RACINE*        CLOUDY    70  49  47 S6        29.94R
BURLINGTON     MOSUNNY   79  55  42 SW15      29.94R
WAUKESHA       PTSUNNY   79  59  50 W5        29.94S HX  80
$$

INZ001>003-010>013-019-020-250100-
NORTHWEST INDIANA

CITY           SKY/WX    TMP DP  RH WIND       PRES   REMARKS
GARY*          MOSUNNY   86  59  39 SW12      29.94R HX  85
MICHIGAN CITY* NOT AVBL
RENSSELAER*    NOT AVBL
VALPARAISO     SUNNY     83  49  30 SW13      29.97R HX  81
$$

LMZ740>746-250100-
SOUTHERN LAKE MICHIGAN

STATION/POSITION TIME  SKY/WX   TEMP WIND        PRES    VSBY
                                AIR  DIR/SP/G
                 (UTC)          (F)  (DEG/KT/KT) (MB)    (MI)
HARRISON CRIB    2300            84  200/ 12/ 15   N/A
BURNHAM HARBOR   0000            85  190/  7/ 16   N/A
CALUMET HARBOR   2300            86              1012.8
BURNS HARBOR     2300            84  200/ 12/ 18 1013.9F
MICHIGAN CITY    2300            84  190/ 13/ 15   N/A
$$

ABBREVIATIONS USED IN REMARKS
   TC - TEMPERATURE IN CELSIUS
  WCI - WIND CHILL INDEX
   HX - HEAT INDEX
  VSB - VISIBILITY
$$




USA.gov is the U.S. government's official web portal to all federal, state and local government web resources and services.